Location: Mount Cross
(36.6390°N, 79.4878°W)
Time: 22:58:26
(UTC+00:00)

Envisat - Visible Passes

Search period start: 17 April 2024 00:00
Search period end: 27 April 2024 00:00
Orbit: 762 x 764 km, 98.3° (Epoch: 17 April)

Date Brightness Start Highest point End Pass type
(mag) Time Alt. Az. Time Alt. Az. Time Alt. Az.
17 Apr 5.0 07:36:51 10° NE 07:40:34 20° E 07:41:53 18° ESE visible
17 Apr 3.5 09:14:55 10° N 09:19:38 40° WNW 09:22:03 25° WSW visible
18 Apr 2.9 08:37:21 10° NNE 08:42:26 85° ESE 08:44:24 39° S visible
19 Apr 4.3 08:00:24 10° NNE 08:05:03 35° E 08:06:43 28° SE visible
19 Apr 4.2 09:39:47 10° NNW 09:43:47 24° WNW 09:46:53 14° WSW visible
20 Apr 5.4 07:24:37 10° ENE 07:27:27 15° E 07:29:03 13° ESE visible
20 Apr 3.1 09:01:46 10° N 09:06:43 54° WNW 09:09:13 28° SW visible
21 Apr 3.3 08:24:24 10° NNE 08:29:26 63° E 08:31:33 34° S visible
21 Apr 4.8 10:05:15 10° NNW 10:07:50 14° WNW 10:10:24 10° W visible
22 Apr 4.7 07:47:44 10° NE 07:51:59 26° E 07:53:52 21° SE visible
22 Apr 3.9 09:26:28 10° N 09:30:54 31° WNW 09:34:02 17° WSW visible
23 Apr 5.7 07:13:13 10° ENE 07:14:19 11° E 07:15:24 10° ESE visible
23 Apr 2.9 08:48:41 10° N 08:53:45 74° WNW 08:56:22 29° SSW visible
24 Apr 3.8 08:11:31 10° NNE 08:16:25 47° E 08:18:41 28° SSE visible
24 Apr 4.5 09:51:32 10° NNW 09:54:58 19° WNW 09:58:24 10° WSW visible
25 Apr 5.1 07:35:13 10° NE 07:38:52 20° E 07:41:00 16° SE visible
25 Apr 3.5 09:13:14 10° N 09:17:59 41° WNW 09:21:10 19° SW visible
26 Apr 3.0 08:35:40 10° NNE 08:40:45 83° ESE 08:43:29 28° S visible
